{"data":{"norad_id":64875,"epoch":"2026-09-21T17:21:01.023264Z","epoch_age_seconds":65565,"freshness":"FRESH","line1":"1 64875U 25154G   26264.72292851  .00016779  00000+0  47217-3 0  9996","line2":"2 64875  97.3939 333.3439 0001634 113.9146 246.2270 15.36547289 64855","mean_motion":15.36547289,"eccentricity":0.0001634,"inclination_deg":97.3939,"raan_deg":333.3439,"arg_perigee_deg":113.9146,"mean_anomaly_deg":246.227,"bstar":0.00047217,"rev_number":6485,"period_min":93.716608028196,"perigee_km":455.2117267483,"apogee_km":457.44523006664,"semimajor_km":6834.4654784075,"source":"CELESTRAK","updated_at":"2026-09-22T09:00:30.012685Z"}}